Weather History for KJMR - December, 2012

Change the Weather History Date:

Sunday, December 2, 2012

  Actual Average Record
Temperature  
Mean Temperature 34 °F -  
Max Temperature 35 °F 28 °F 59 °F (1982)
Min Temperature 33 °F 6 °F -32 °F (1985)
Degree Days  
Heating Degree Days 31    
Moisture  
Dew Point 32 °F    
Average Humidity 91    
Maximum Humidity 100    
Minimum Humidity 87    
Precipitation  
Precipitation 0.00 in - - ()
Sea Level Pressure  
Sea Level Pressure 29.90 in    
Wind  
Wind Speed 2 mph (SSE)    
Max Wind Speed 9 mph    
Max Gust Speed 16 mph    
Visibility 3 miles    
Events      
Averages and records for this station are not official NWS values.
T = Trace of Precipitation, MM = Missing Value Source: NWS Daily Summary

Daily Weather History Graph

Daily Weather History Graph

Search for Another Location

Airport or City:

Trip Planner

Search our weather history database for the weather conditions in past years. The results will help you decide how hot, cold, wet, or windy it might be!

Date:

Astronomy

Dec. 02, 2012 Rise Set
Actual Time 7:35 AM CST 4:29 PM CST
Civil Twilight 7:01 AM CST 5:03 PM CST
Nautical Twilight 6:24 AM CST 5:40 PM CST
Astronomical Twilight 5:48 AM CST 6:16 PM CST
Moon 8:23 PM CST (12/2) 10:21 AM CST (12/2)
Length of Visible Light 10h 01m
Length of Day
8h 53m
Waning Gibbous, 85% of the Moon is Illuminated
Dec 2
Waning Gibbous
Dec 6
Last Quarter
Dec 13
New
Dec 19
First Quarter
Dec 28
Full

Hourly Weather History & Observations

Time (CST) Temp. Windchill Dew Point Humidity Pressure Visibility Wind Dir Wind Speed Gust Speed Precip Events Conditions
12:02 AM 33.8 °F - 32.0 °F 93% 29.85 in 1.5 mi Calm Calm - N/A   Overcast
12:21 AM 33.8 °F - 32.0 °F 93% 29.87 in 1.8 mi Calm Calm - N/A   Overcast
12:42 AM 33.8 °F 30.8 °F 32.0 °F 93% 29.87 in 2.5 mi WNW 3.5 mph - N/A   Overcast
1:01 AM 33.8 °F - 32.0 °F 93% 29.87 in 3.0 mi Calm Calm - N/A   Overcast
1:21 AM 33.8 °F - 32.0 °F 93% 29.87 in 3.0 mi Calm Calm - N/A   Overcast
1:42 AM 33.8 °F - 32.0 °F 93% 29.89 in 3.0 mi Calm Calm - N/A   Overcast
2:01 AM 33.8 °F - 32.0 °F 93% 29.88 in 3.0 mi Calm Calm - N/A   Overcast
2:21 AM 33.8 °F - 32.0 °F 93% 29.89 in 3.0 mi Calm Calm - N/A   Overcast
2:41 AM 33.8 °F - 32.0 °F 93% 29.89 in 2.5 mi Calm Calm - N/A   Overcast
3:01 AM 33.8 °F - 32.0 °F 93% 29.90 in 3.0 mi Calm Calm - N/A   Overcast
3:22 AM 33.8 °F - 32.0 °F 93% 29.90 in 2.5 mi Calm Calm - N/A   Overcast
3:41 AM 33.8 °F - 32.0 °F 93% 29.90 in 3.0 mi Calm Calm - N/A   Overcast
4:01 AM 33.8 °F - 32.0 °F 93% 29.90 in 3.0 mi Calm Calm - N/A   Overcast
4:22 AM 33.8 °F - 32.0 °F 93% 29.91 in 3.0 mi Calm Calm - N/A   Overcast
4:41 AM 33.8 °F - 32.0 °F 93% 29.91 in 3.0 mi Calm Calm - N/A   Overcast
5:02 AM 33.8 °F - 32.0 °F 93% 29.92 in 3.0 mi Calm Calm - N/A   Overcast
5:21 AM 33.8 °F - 32.0 °F 93% 29.93 in 3.0 mi Calm Calm - N/A   Overcast
5:41 AM 33.8 °F - 32.0 °F 93% 29.93 in 3.0 mi Calm Calm - N/A   Overcast
6:01 AM 33.8 °F - 32.0 °F 93% 29.93 in 3.0 mi Calm Calm - N/A   Overcast
6:21 AM 33.8 °F - 32.0 °F 93% 29.94 in 3.0 mi Calm Calm - N/A   Overcast
6:42 AM 33.8 °F - 32.0 °F 93% 29.95 in 3.0 mi Calm Calm - N/A   Overcast
7:01 AM 33.8 °F - 32.0 °F 93% 29.97 in 3.0 mi Calm Calm - N/A   Overcast
7:22 AM 33.8 °F - 32.0 °F 93% 29.96 in 3.0 mi Calm Calm - N/A   Overcast
7:41 AM 33.8 °F - 32.0 °F 93% 29.97 in 4.0 mi Calm Calm - N/A   Overcast
8:02 AM 33.8 °F - 32.0 °F 93% 29.97 in 3.0 mi Calm Calm - N/A   Overcast
8:21 AM 33.8 °F - 32.0 °F 93% 29.97 in 2.0 mi Calm Calm - N/A   Overcast
8:42 AM 33.8 °F - 32.0 °F 93% 29.98 in 2.5 mi Calm Calm - N/A   Overcast
9:02 AM 33.8 °F - 32.0 °F 93% 29.98 in 2.5 mi Calm Calm - N/A   Overcast
9:21 AM 35.6 °F - 32.0 °F 87% 29.98 in 2.5 mi Calm Calm - N/A   Overcast
9:42 AM 35.6 °F - 32.0 °F 87% 29.98 in 3.0 mi Calm Calm - N/A   Overcast
10:01 AM 35.6 °F 32.8 °F 32.0 °F 87% 29.97 in 3.0 mi SSE 3.5 mph - N/A   Overcast
10:22 AM 35.6 °F 32.8 °F 32.0 °F 87% 29.96 in 2.5 mi SSE 3.5 mph - N/A   Overcast
10:41 AM 35.6 °F 31.7 °F 32.0 °F 87% 29.97 in 2.5 mi South 4.6 mph - N/A   Overcast
11:01 AM 35.6 °F 30.7 °F 32.0 °F 87% 29.97 in 3.0 mi South 5.8 mph - N/A   Overcast
11:22 AM 35.6 °F 29.9 °F 32.0 °F 87% 29.97 in 2.5 mi South 6.9 mph - N/A   Overcast
11:41 AM 35.6 °F 29.2 °F 32.0 °F 87% 29.97 in 2.5 mi SSW 8.1 mph - N/A   Overcast
12:02 PM 35.6 °F 29.2 °F 32.0 °F 87% 29.96 in 2.5 mi SSW 8.1 mph - N/A   Overcast
12:21 PM 35.6 °F 29.9 °F 32.0 °F 87% 29.97 in 2.5 mi South 6.9 mph - N/A   Overcast
12:41 PM 35.6 °F 29.9 °F 32.0 °F 87% 29.96 in 2.5 mi South 6.9 mph - N/A   Overcast
1:02 PM 35.6 °F 30.7 °F 32.0 °F 87% 29.94 in 2.5 mi South 5.8 mph - N/A   Overcast
1:21 PM 35.6 °F 29.9 °F 32.0 °F 87% 29.94 in 2.5 mi South 6.9 mph - N/A   Overcast
1:41 PM 35.6 °F 31.7 °F 32.0 °F 87% 29.93 in 2.5 mi South 4.6 mph - N/A   Overcast
2:01 PM 35.6 °F 30.7 °F 32.0 °F 87% 29.93 in 2.5 mi SSE 5.8 mph - N/A   Overcast
2:22 PM 35.6 °F 29.9 °F 32.0 °F 87% 29.94 in 2.5 mi South 6.9 mph - N/A   Overcast
2:41 PM 35.6 °F 30.7 °F 32.0 °F 87% 29.94 in 3.0 mi SSE 5.8 mph - N/A   Overcast
3:02 PM 35.6 °F 30.7 °F 32.0 °F 87% 29.94 in 2.5 mi SSE 5.8 mph - N/A   Haze
3:21 PM 35.6 °F 30.7 °F 32.0 °F 87% 29.92 in 2.5 mi SSE 5.8 mph - N/A   Overcast
3:41 PM 35.6 °F 30.7 °F 32.0 °F 87% 29.91 in 2.5 mi SE 5.8 mph - N/A   Overcast
4:02 PM 35.6 °F 29.2 °F 32.0 °F 87% 29.90 in 2.5 mi SE 8.1 mph - N/A   Overcast
4:21 PM 35.6 °F 29.9 °F 32.0 °F 87% 29.90 in 2.5 mi SSE 6.9 mph - N/A   Overcast
4:42 PM 35.6 °F 31.7 °F 32.0 °F 87% 29.90 in 3.0 mi SSE 4.6 mph - N/A   Overcast
5:01 PM 35.6 °F 30.7 °F 32.0 °F 87% 29.89 in 3.0 mi SE 5.8 mph - N/A   Overcast
5:21 PM 35.6 °F 32.8 °F 32.0 °F 87% 29.89 in 3.0 mi SE 3.5 mph - N/A   Overcast
5:42 PM 35.6 °F 30.7 °F 32.0 °F 87% 29.88 in 3.0 mi SE 5.8 mph - N/A   Overcast
6:01 PM 35.6 °F 30.7 °F 32.0 °F 87% 29.87 in 3.0 mi SE 5.8 mph - N/A   Overcast
6:22 PM 35.6 °F 31.7 °F 32.0 °F 87% 29.87 in 2.5 mi SE 4.6 mph - N/A   Overcast
6:41 PM 33.8 °F 27.7 °F 32.0 °F 93% 29.87 in 2.5 mi SE 6.9 mph - N/A   Overcast
7:02 PM 33.8 °F 27.0 °F 32.0 °F 93% 29.86 in 2.0 mi SE 8.1 mph - N/A   Overcast
7:21 PM 35.6 °F 29.9 °F 33.8 °F 93% 29.86 in 2.0 mi SE 6.9 mph - N/A   Overcast
7:42 PM 35.6 °F 29.2 °F 33.8 °F 93% 29.85 in 2.0 mi SE 8.1 mph - N/A   Overcast
8:01 PM 35.6 °F 30.7 °F 33.8 °F 93% 29.85 in 2.5 mi SSE 5.8 mph - N/A   Overcast
8:21 PM 35.6 °F 29.9 °F 33.8 °F 93% 29.83 in 2.5 mi SE 6.9 mph - N/A   Overcast
8:41 PM 35.6 °F 29.9 °F 33.8 °F 93% 29.83 in 2.5 mi SSE 6.9 mph - N/A   Overcast
9:02 PM 35.6 °F 29.2 °F 33.8 °F 93% 29.82 in 3.0 mi SSE 8.1 mph - N/A   Overcast
9:22 PM 35.6 °F 30.7 °F 33.8 °F 93% 29.82 in 3.0 mi SSE 5.8 mph - N/A   Overcast
9:42 PM 35.6 °F 29.9 °F 33.8 °F 93% 29.82 in 3.0 mi SSE 6.9 mph - N/A   Overcast
10:02 PM 35.6 °F 31.7 °F 33.8 °F 93% 29.82 in 3.0 mi SSE 4.6 mph - N/A   Overcast
10:22 PM 35.6 °F 29.2 °F 33.8 °F 93% 29.81 in 4.0 mi SSE 8.1 mph - N/A   Overcast
10:42 PM 35.6 °F 29.9 °F 33.8 °F 93% 29.80 in 3.0 mi SSE 6.9 mph - N/A   Overcast
11:02 PM 35.6 °F 29.9 °F 33.8 °F 93% 29.80 in 3.0 mi SSE 6.9 mph - N/A   Overcast
11:21 PM 35.6 °F 28.6 °F 33.8 °F 93% 29.80 in 3.0 mi SSE 9.2 mph - N/A   Overcast
11:42 PM 35.6 °F 29.2 °F 35.6 °F 100% 29.80 in 3.0 mi SSE 8.1 mph 16.1 mph N/A   Overcast